This is the latest recevied weather packets stored in our database for station/object W0WFX-2. If no packets are shown the sender has not sent any weather packets the latest 10 day(s).
| Time | Temp. | Humidity | Pressure | Rain* | Wind** | Luminosity | Snow |
|---|---|---|---|---|---|---|---|
| 1787946721 | 31.11° C | 37% | 1019.6 hPa | 0 mm | - | 670 W/m² | - |
| 1787946421 | 31.11° C | 38% | 1019.6 hPa | 0 mm | - | 668 W/m² | - |
| 1787946120 | 31.67° C | 38% | 1019.6 hPa | 0 mm | - | 691 W/m² | - |
| 1787945815 | 31.11° C | 40% | 1019.7 hPa | 0 mm | - | 704 W/m² | - |
| 1787945516 | 31.11° C | 40% | 1019.8 hPa | 0 mm | - | 701 W/m² | - |
| 1787945211 | 30.56° C | 39% | 1020.1 hPa | 0 mm | - | 749 W/m² | - |
| 1787944910 | 31.11° C | 38% | 1020.2 hPa | 0 mm | - | 720 W/m² | - |
| 1787944608 | 31.11° C | 37% | 1020 hPa | 0 mm | - | 686 W/m² | - |
| 1787944304 | 30.56° C | 39% | 1020.1 hPa | 0 mm | - | 671 W/m² | - |
| 1787943999 | 31.11° C | 39% | 1020.2 hPa | 0 mm | - | 432 W/m² | - |
| 1787943695 | 31.67° C | 37% | 1020.1 hPa | 0 mm | - | 727 W/m² | - |
| 1787943390 | 31.11° C | 39% | 1020.3 hPa | 0 mm | - | 719 W/m² | - |
| 1787943084 | 30.56° C | 39% | 1020.3 hPa | 0 mm | - | 725 W/m² | - |
| 1787942780 | 30.56° C | 39% | 1020.6 hPa | 0 mm | - | 729 W/m² | - |
| 1787942480 | 31.11° C | 38% | 1020.4 hPa | 0 mm | - | 736 W/m² | - |
| 1787942175 | 31.11° C | 40% | 1020.6 hPa | 0 mm | - | 726 W/m² | - |
| 1787941870 | 31.11° C | 39% | 1020.3 hPa | 0 mm | - | 726 W/m² | - |
| 1787941569 | 31.11° C | 40% | 1020.5 hPa | 0 mm | - | 761 W/m² | - |
| 1787941264 | 31.11° C | 39% | 1020.5 hPa | 0 mm | - | 772 W/m² | - |
| 1787940963 | 31.11° C | 41% | 1020.4 hPa | 0 mm | - | 763 W/m² | - |
| 1787940662 | 30.56° C | 39% | 1020.6 hPa | 0 mm | - | 740 W/m² | - |
| 1787940361 | 30.56° C | 40% | 1020.9 hPa | 0 mm | - | 736 W/m² | - |
| 1787940055 | 31.11° C | 38% | 1021 hPa | 0 mm | - | 742 W/m² | - |
| 1787939755 | 30.56° C | 41% | 1020.7 hPa | 0 mm | - | 804 W/m² | - |
| 1787939449 | 31.67° C | 38% | 1020.9 hPa | 0 mm | - | 890 W/m² | - |
* Rain latest hour (hover to see other rain measurements)
** Current wind speed in m/s (hover to see current wind gust speed)